Wind_Speed
8 8 8 8 8 8 9 9 9 9 8 8 9 9 9 8 8 8 8 8 8 9 9 9 9 9 8 6 6 6 6 6 6 7 7 8 9 9 10 10 10 10 10
7 7 8 8 8 9 9 9 10 9 9 8 9 9 10 9 9 9 8 8 9 9 9 9 10 10 9 8 7 7 6 7 7 7 8 8 9 9 9 9 10 11 11
8 7 8 9 9 9 9 9 10 9 9 9 9 9 9 10 9 9 8 9 9 10 10 10 10 9 9 8 8 8 7 7 8 8 9 9 9 10 10 10 10 11 12
9 9 9 9 9 10 10 10 10 10 9 9 9 8 9 9 9 8 8 8 9 10 10 10 10 9 9 9 9 9 9 9 9 9 9 10 10 11 11 11 12 12 12
11 10 10 11 10 11 11 11 11 10 9 9 9 9 9 9 9 8 8 9 10 11 11 11 10 10 9 9 9 9 9 9 9 9 10 10 10 11 12 12 12 13 13
12 11 12 12 11 11 11 11 11 11 10 9 9 9 9 9 10 10 10 10 11 12 12 12 11 11 11 11 11 10 10 10 10 10 11 11 11 11 12 13 12 13 13
13 13 12 12 12 12 13 13 13 12 11 10 9 9 10 10 10 11 11 12 12 13 14 13 12 11 12 12 12 11 12 12 11 11 11 11 11 12 13 13 13 13 13
15 14 13 13 13 13 14 14 14 13 12 11 11 11 11 11 12 12 12 13 13 14 15 14 13 13 13 13 13 13 13 13 13 13 13 12 12 13 13 13 13 13 14
16 15 14 14 14 14 14 14 13 12 12 12 12 12 12 12 13 13 13 13 14 15 16 16 15 14 14 14 14 14 14 14 14 14 14 13 13 13 13 13 14 14 14
18 17 15 15 15 14 13 13 12 12 12 12 12 12 13 13 13 14 14 14 16 16 16 16 15 15 15 15 15 14 14 14 13 13 13 13 14 14 13 14 14 14 14
18 17 16 16 15 15 14 13 13 12 12 12 12 13 14 14 15 15 15 16 16 17 17 16 15 15 15 15 15 15 14 14 14 13 13 13 14 13 13 14 14 15 15
18 16 16 16 16 15 14 14 14 13 13 14 14 14 14 15 16 15 16 16 17 17 17 17 16 15 15 15 15 15 15 15 14 14 14 14 14 14 15 15 15 16 15
17 17 16 16 16 16 16 15 15 15 14 15 15 15 15 16 16 17 17 17 17 18 18 17 16 16 16 16 15 15 15 15 15 15 15 14 14 14 15 16 16 16 16
19 18 18 17 17 17 17 17 16 16 16 16 16 16 16 17 17 17 17 17 18 18 18 17 16 16 16 16 16 15 15 15 15 16 16 16 15 15 15 15 15 15 15
20 19 19 18 18 17 17 18 17 17 16 17 17 17 17 17 18 18 18 18 18 18 18 17 17 17 16 16 16 16 16 16 16 16 16 16 15 15 15 15 16 16 16
21 21 21 19 18 18 17 18 18 17 17 17 18 18 18 18 19 19 18 18 19 18 18 17 17 17 17 17 17 17 16 16 17 17 16 16 15 16 15 15 16 16 17
22 22 21 21 19 18 18 18 17 18 19 19 19 19 19 19 19 18 18 18 18 18 18 18 17 17 17 17 17 18 17 17 17 18 18 17 17 16 16 16 17 17 17
23 23 23 22 21 20 19 18 19 18 19 19 20 20 20 20 19 19 19 19 19 18 18 18 18 18 18 18 18 18 18 19 19 19 19 19 19 18 18 18 18 18 19
23 24 24 23 22 21 20 20 21 21 20 20 21 21 21 20 20 19 19 19 19 19 18 18 19 19 18 18 18 18 18 19 20 20 19 19 19 19 19 19 19 20 20
24 24 24 24 23 23 22 22 22 22 22 22 21 21 21 21 20 19 19 20 20 19 19 19 19 19 19 19 19 19 19 20 20 20 19 19 19 19 19 20 20 20 21
24 24 25 24 24 24 24 23 22 21 22 22 21 20 20 21 21 20 21 21 20 19 19 20 20 20 20 20 20 20 20 20 20 20 20 19 19 20 20 21 21 21 22
24 24 24 23 23 23 24 23 22 22 21 20 20 20 20 21 22 21 22 22 21 21 21 21 21 21 21 21 21 22 22 21 22 21 21 22 21 21 22 22 22 23 23
25 25 25 25 24 24 24 24 22 22 21 20 21 21 21 21 21 22 22 22 22 22 22 22 22 22 22 22 22 23 22 22 22 22 22 23 23 23 23 23 23 24 24
26 26 25 24 25 24 25 25 24 23 22 21 22 22 22 22 22 21 21 22 23 23 22 22 22 23 23 23 23 23 23 22 23 23 23 23 24 24 24 25 25 25 24
26 26 26 26 25 25 25 24 24 24 23 23 23 24 23 23 23 22 22 23 23 23 23 23 23 23 23 22 23 22 22 22 23 23 23 24 25 25 25 25 25 25 25
26 25 24 25 25 25 25 25 26 24 24 24 24 24 24 23 23 23 23 23 23 24 23 23 23 23 23 23 23 23 23 24 24 24 24 24 25 25 26 26 25 25 24
Wind_Direction
280 286 289 297 301 308 306 309 314 318 321 328 332 335 333 327 329 331 331 331 332 335 337 335 334 329 326 323 317 307 299 294 288 280 270 263 263 259 256 254 253 255 258
271 282 287 288 292 301 300 300 304 308 311 316 321 321 326 325 323 325 327 329 329 331 331 330 329 324 321 319 318 309 300 292 288 283 277 271 270 267 259 256 258 259 260
265 278 289 289 290 292 291 292 299 303 306 310 312 313 316 319 318 318 322 325 327 328 328 326 326 323 321 320 317 313 301 293 287 283 280 275 270 265 262 259 260 263 264
267 273 278 279 284 289 289 289 293 294 298 303 306 311 314 314 313 314 319 321 325 327 328 326 324 320 317 316 315 312 304 295 289 282 278 275 272 268 263 261 261 263 265
268 269 274 273 276 283 285 287 289 285 286 291 297 302 305 304 305 309 315 321 325 325 324 324 322 317 314 312 311 311 305 300 291 283 279 276 273 270 268 266 265 266 266
259 264 268 268 269 275 276 281 285 280 279 282 290 295 299 299 300 303 309 314 317 318 319 320 319 312 310 310 308 306 304 300 294 284 282 278 274 273 270 269 269 270 268
257 261 265 263 263 270 275 278 281 280 278 277 279 286 291 294 298 301 305 308 310 312 313 312 313 308 306 304 305 305 304 299 294 290 286 281 276 274 271 270 270 272 271
260 261 263 265 266 268 269 272 275 276 274 274 275 280 287 292 296 299 299 301 303 305 305 305 305 305 303 302 301 303 305 299 293 291 287 281 277 272 270 269 270 273 274
261 262 262 265 269 268 268 270 267 269 270 272 276 279 285 289 294 297 295 298 300 300 299 299 298 301 300 299 300 302 304 301 296 293 288 281 278 276 273 269 271 275 276
262 263 267 269 268 266 267 269 268 269 271 277 281 279 283 287 294 297 297 298 299 299 297 295 295 297 298 298 297 298 301 303 299 296 290 282 280 276 272 272 274 272 272
262 262 266 267 266 265 265 265 269 270 272 275 278 281 286 290 296 296 295 296 298 299 298 295 293 294 296 296 297 298 298 300 300 297 292 287 283 275 271 273 274 275 274
258 260 264 263 265 265 261 262 267 271 276 274 273 279 285 291 295 298 298 297 298 298 296 294 293 293 294 294 296 298 298 297 296 296 294 289 283 278 274 273 274 275 276
254 257 260 259 263 263 258 257 262 267 272 275 273 277 283 288 293 296 297 297 299 299 296 293 292 294 294 294 295 296 296 294 293 294 292 290 286 281 277 276 276 276 275
256 257 258 260 264 263 257 255 261 265 268 273 275 280 284 288 291 294 297 300 301 300 299 296 297 299 295 294 297 296 295 294 295 296 294 289 284 282 278 277 277 278 277
258 258 258 260 263 266 265 261 263 264 266 270 275 281 283 286 290 294 296 299 301 300 301 303 301 300 298 295 295 296 295 293 296 296 294 291 286 282 278 277 278 278 278
257 259 259 261 264 268 267 265 267 265 266 268 272 278 282 286 289 293 296 298 298 298 300 299 298 298 298 298 298 297 297 297 296 295 293 290 286 282 280 280 279 279 279
256 257 261 264 265 263 264 264 269 267 266 268 270 273 278 283 287 289 293 296 298 298 297 298 299 297 298 300 300 298 295 298 296 293 293 290 288 287 283 282 282 282 282
256 258 261 264 263 262 262 265 266 267 265 267 269 271 274 280 284 286 289 292 294 295 294 295 297 298 298 299 300 300 299 299 297 293 291 290 288 286 284 281 282 283 285
257 258 260 262 262 262 265 264 264 266 266 266 267 269 272 277 281 284 287 289 290 292 292 293 293 295 296 297 298 298 298 299 299 295 291 290 288 285 284 283 283 284 284
259 258 259 260 259 261 262 263 263 264 266 269 266 267 270 275 279 282 284 286 288 289 290 292 292 292 292 293 297 298 298 298 297 296 291 289 287 286 284 284 285 285 283
258 257 257 258 259 260 263 262 263 264 266 265 265 270 273 276 278 281 282 284 284 286 288 290 291 291 290 290 293 296 297 297 296 296 293 289 288 287 285 284 283 284 283
254 256 258 259 260 263 264 262 264 264 266 268 268 272 276 276 277 280 282 281 282 285 286 286 287 288 288 290 292 293 294 294 296 295 294 291 289 287 286 284 283 284 283
253 255 258 259 261 263 263 262 266 268 267 269 272 273 275 277 277 279 282 282 283 284 285 285 284 286 287 289 291 292 293 293 293 292 292 291 291 290 289 286 284 285 284
254 256 259 260 260 261 264 265 269 269 267 269 272 274 275 276 277 279 281 283 284 284 284 283 283 284 287 287 289 290 290 292 293 291 291 292 293 291 289 287 285 284 284
256 259 260 261 263 265 268 270 270 267 267 268 271 273 275 275 277 280 283 285 285 284 284 283 284 284 285 286 288 291 292 292 293 292 292 293 294 292 290 289 286 285 282
257 258 260 262 263 266 268 270 269 268 267 267 269 271 273 276 278 281 283 286 287 286 283 284 284 286 284 285 288 290 292 292 293 293 293 293 294 293 291 289 286 284 282
Height
5876 5877 5877 5877 5877 5877 5877 5876 5875 5874 5873 5872 5871 5870 5869 5868 5867 5865 5864 5863 5861 5860 5858 5857 5856 5855 5853 5852 5851 5851 5850 5850 5849 5849 5849 5849 5849 5849 5850 5850 5850 5851 5851
5874 5874 5875 5875 5875 5875 5874 5874 5873 5873 5872 5871 5870 5869 5868 5867 5866 5864 5863 5862 5860 5859 5857 5856 5855 5853 5852 5851 5850 5849 5849 5848 5848 5847 5847 5847 5848 5847 5847 5848 5848 5848 5848
5872 5872 5872 5872 5872 5872 5872 5871 5871 5870 5870 5869 5868 5867 5866 5865 5864 5863 5862 5860 5859 5857 5856 5854 5853 5852 5850 5849 5848 5848 5847 5846 5846 5845 5845 5845 5845 5845 5845 5845 5845 5845 5845
5869 5869 5869 5870 5870 5870 5869 5869 5868 5868 5867 5867 5866 5865 5864 5864 5863 5861 5860 5859 5857 5856 5854 5853 5851 5850 5849 5848 5847 5846 5845 5844 5843 5843 5842 5842 5842 5842 5842 5843 5843 5842 5843
5866 5866 5867 5867 5867 5867 5866 5866 5866 5866 5865 5865 5864 5863 5862 5861 5861 5860 5858 5857 5855 5854 5852 5851 5849 5848 5847 5846 5845 5844 5842 5841 5841 5840 5840 5839 5839 5839 5839 5840 5840 5840 5840
5863 5863 5864 5863 5863 5863 5863 5863 5863 5862 5862 5862 5862 5861 5860 5859 5858 5857 5856 5855 5853 5852 5851 5849 5847 5846 5845 5844 5842 5841 5840 5839 5838 5837 5837 5836 5836 5836 5836 5836 5836 5836 5836
5859 5860 5860 5860 5860 5860 5860 5860 5860 5859 5859 5859 5859 5859 5858 5857 5856 5855 5854 5853 5851 5850 5848 5847 5845 5844 5843 5842 5840 5839 5838 5836 5835 5834 5834 5833 5833 5833 5833 5833 5833 5833 5833
5855 5856 5856 5856 5856 5856 5856 5856 5856 5856 5856 5856 5856 5856 5855 5855 5853 5852 5851 5850 5848 5847 5846 5844 5842 5841 5840 5839 5838 5836 5835 5834 5832 5831 5831 5830 5830 5829 5829 5830 5829 5829 5829
5851 5851 5851 5852 5852 5852 5852 5852 5852 5852 5853 5852 5852 5852 5852 5851 5850 5849 5848 5846 5845 5844 5842 5841 5839 5838 5837 5836 5835 5833 5832 5831 5829 5828 5827 5827 5827 5826 5826 5826 5826 5826 5826
5847 5846 5847 5848 5848 5849 5849 5849 5849 5849 5849 5849 5848 5848 5848 5847 5847 5846 5844 5842 5841 5840 5838 5837 5836 5835 5833 5832 5831 5830 5829 5827 5826 5825 5824 5823 5823 5822 5822 5822 5822 5822 5822
5843 5843 5844 5844 5844 5844 5844 5845 5845 5845 5845 5846 5845 5845 5845 5844 5843 5841 5840 5838 5837 5835 5834 5833 5832 5831 5829 5828 5827 5826 5825 5823 5822 5821 5820 5819 5819 5818 5818 5818 5818 5818 5818
5838 5839 5839 5839 5840 5840 5840 5841 5841 5841 5841 5841 5842 5841 5841 5840 5839 5837 5836 5834 5833 5831 5830 5829 5828 5827 5826 5824 5823 5822 5821 5819 5818 5817 5816 5815 5815 5814 5814 5814 5814 5814 5813
5833 5834 5834 5834 5834 5835 5835 5836 5837 5838 5838 5838 5838 5838 5837 5836 5835 5833 5832 5830 5828 5827 5826 5825 5824 5823 5821 5820 5819 5818 5816 5815 5814 5813 5813 5812 5811 5810 5810 5810 5810 5809 5809
5828 5829 5829 5830 5830 5830 5831 5831 5832 5833 5834 5834 5834 5834 5833 5832 5831 5829 5828 5826 5824 5823 5821 5819 5818 5818 5817 5816 5814 5813 5812 5811 5810 5809 5808 5807 5807 5806 5806 5806 5805 5805 5805
5823 5823 5824 5825 5825 5825 5826 5827 5828 5828 5829 5829 5830 5829 5829 5828 5826 5825 5824 5822 5820 5818 5817 5815 5814 5813 5812 5811 5810 5809 5808 5807 5806 5805 5804 5803 5802 5802 5802 5801 5801 5801 5800
5817 5818 5818 5819 5819 5820 5821 5822 5822 5823 5824 5825 5825 5825 5824 5823 5822 5821 5820 5818 5816 5815 5813 5811 5810 5809 5808 5807 5806 5805 5804 5803 5802 5800 5799 5798 5798 5797 5797 5797 5796 5796 5796
5812 5812 5813 5814 5814 5814 5815 5816 5817 5818 5819 5820 5820 5820 5820 5819 5818 5816 5815 5813 5812 5810 5809 5808 5806 5805 5804 5803 5802 5801 5800 5798 5797 5796 5795 5794 5793 5792 5792 5792 5792 5791 5790
5806 5807 5808 5808 5808 5809 5809 5811 5812 5813 5813 5814 5814 5814 5814 5814 5813 5811 5810 5809 5807 5806 5805 5804 5802 5802 5800 5799 5798 5796 5795 5794 5792 5791 5790 5789 5788 5788 5787 5787 5786 5786 5785
5799 5801 5801 5803 5803 5804 5804 5805 5806 5807 5807 5807 5808 5808 5808 5808 5807 5806 5805 5804 5803 5802 5800 5799 5798 5798 5797 5795 5794 5792 5791 5789 5787 5786 5785 5784 5783 5782 5782 5781 5781 5780 5779
5793 5794 5795 5796 5797 5798 5799 5799 5800 5801 5801 5801 5801 5802 5802 5802 5802 5801 5800 5799 5798 5797 5796 5795 5794 5793 5792 5791 5789 5788 5786 5784 5783 5781 5780 5779 5778 5777 5776 5775 5774 5773 5772
5786 5787 5788 5789 5790 5792 5792 5793 5793 5794 5794 5795 5795 5796 5796 5796 5795 5795 5795 5794 5792 5792 5791 5790 5789 5788 5787 5786 5784 5782 5781 5779 5777 5776 5774 5773 5772 5771 5770 5769 5768 5767 5766
5779 5781 5782 5783 5784 5785 5786 5786 5787 5787 5787 5789 5789 5790 5789 5789 5789 5789 5788 5788 5787 5786 5786 5784 5783 5782 5781 5780 5778 5777 5775 5774 5772 5770 5769 5767 5766 5765 5763 5762 5761 5760 5759
5773 5774 5775 5776 5777 5778 5779 5779 5780 5781 5782 5782 5783 5784 5783 5783 5783 5783 5782 5781 5781 5780 5779 5778 5777 5776 5775 5774 5772 5771 5769 5768 5766 5765 5763 5762 5760 5758 5757 5755 5754 5753 5751
5765 5767 5769 5770 5770 5772 5772 5773 5774 5775 5775 5776 5776 5777 5777 5777 5777 5776 5776 5775 5775 5774 5773 5772 5771 5770 5769 5768 5766 5765 5763 5761 5760 5758 5757 5755 5753 5752 5750 5748 5747 5745 5744
5758 5760 5761 5762 5763 5764 5765 5766 5767 5767 5768 5769 5770 5770 5770 5770 5770 5769 5769 5769 5768 5767 5766 5765 5764 5764 5763 5761 5760 5758 5757 5755 5754 5752 5751 5749 5747 5745 5743 5741 5739 5738 5736
5751 5753 5754 5755 5757 5757 5758 5759 5759 5760 5761 5762 5763 5763 5763 5763 5763 5762 5762 5761 5761 5760 5759 5758 5757 5757 5756 5755 5754 5752 5751 5749 5748 5746 5744 5742 5740 5738 5736 5734 5732 5730 5729